GW5798 Weather Reports


Display with metric or nautical units.
time (UTC)temp
F
wind
direction
speed
MPH
gust
MPH
rain 1hr
in
rain 24hr
in
rain mn
in
humidity
%
barometer
mb
20260502220106 75 317 2.0 6.0 0.00 0.58 0.00 45 1018.8
20260502215056 75 267 2.0 6.0 0.00 0.58 0.00 44 1018.7
20260502214046 76 146 1.0 4.0 0.00 0.58 0.00 46 1019.0
20260502213036 76 337 2.0 4.0 0.00 0.58 0.00 43 1019.0
20260502212026 76 76 2.0 4.0 0.00 0.58 0.00 43 1019.0
20260502211016 76 216 1.0 3.0 0.00 0.60 0.00 44 1019.1
20260502210107 76 351 1.0 6.0 0.00 0.62 0.00 44 1019.1
20260502205057 76 329 2.0 7.0 0.00 0.63 0.00 45 1019.2
20260502204107 76 144 2.0 6.0 0.00 0.64 0.00 45 1019.4
20260502203037 76 337 2.0 8.0 0.00 0.65 0.00 45 1019.6
20260502202027 76 18 2.0 3.0 0.00 0.69 0.00 46 1019.5
20260502201037 76 109 2.0 6.0 0.00 0.74 0.00 45 1019.7
20260502200108 76 93 2.0 4.0 0.00 0.77 0.00 44 1019.9
20260502195118 75 322 2.0 4.0 0.00 0.79 0.00 46 1020.0
20260502194047 75 78 2.0 4.0 0.00 0.81 0.00 47 1020.1
20260502193038 75 356 2.0 6.0 0.00 0.83 0.00 47 1020.2
20260502192028 75 63 1.0 4.0 0.00 0.84 0.00 49 1020.3
20260502191017 74 272 2.0 7.0 0.00 0.85 0.00 49 1020.4
20260502190108 74 285 3.0 8.0 0.00 0.86 0.00 49 1020.5
20260502185059 74 48 2.0 4.0 0.00 1.05 0.00 51 1020.7
20260502184108 74 356 2.0 7.0 0.00 1.15 0.00 50 1020.7
20260502182028 73 105 3.0 7.0 0.00 1.17 0.00 49 1021.0
20260502181018 73 324 2.0 6.0 0.00 1.35 0.00 51 1021.1
20260502180109 73 265 2.0 7.0 0.00 1.43 0.00 53 1021.2
20260502170110 71 250 1.0 6.0 0.00 1.64 0.00 57 1021.5
20260502164050 70 357 2.0 8.0 0.00 1.65 0.00 57 1021.5
20260502163040 69 337 1.0 3.0 0.00 1.66 0.00 61 1021.4
20260502162030 69 277 2.0 7.0 0.00 1.68 0.00 63 1021.4
20260502161020 68 219 2.0 4.0 0.00 1.71 0.00 64 1021.4
20260502160111 67 224 1.0 6.0 0.00 1.75 0.00 64 1021.3
20260502152111 66 119 1.0 4.0 0.00 1.88 0.00 70 1021.0
20260502151100 65 112 2.0 6.0 0.00 1.88 0.00 71 1021.2
20260502150111 64 37 2.0 10.0 0.00 1.88 0.00 72 1021.1
20260502130113 55 296 1.0 3.0 0.00 2.16 0.00 91 1020.0
20260502123043 53 292 0.0 2.0 0.00 2.22 0.00 95 1019.4
20260502122033 53 295 1.0 2.0 0.00 2.22 0.00 95 1019.3
20260502121023 52 298 0.0 2.0 0.00 2.23 0.00 95 1019.5
20260502120114 52 352 0.0 1.0 0.00 2.24 0.00 95 1019.2
20260502115104 52 0.0 0.0 0.00 2.24 0.00 95 1019.1
20260502114114 52 0.0 1.0 0.00 2.24 0.00 94 1019.0
20260502113044 53 323 0.0 1.0 0.00 2.25 0.00 94 1018.9
20260502112034 53 314 0.0 3.0 0.00 2.25 0.00 94 1018.8
20260502111024 53 329 0.0 2.0 0.00 2.25 0.00 93 1018.7
20260502110114 53 340 1.0 2.0 0.00 2.25 0.00 93 1018.5
20260502105104 53 346 0.0 1.0 0.00 2.25 0.00 92 1018.5
20260502104054 53 183 0.0 2.0 0.00 2.26 0.00 92 1018.4
20260502103044 54 328 0.0 1.0 0.00 2.27 0.00 92 1018.2
20260502102034 54 287 0.0 2.0 0.00 2.27 0.00 91 1018.1
20260502101025 54 0.0 2.0 0.00 2.28 0.00 91 1018.0
20260502100215 54 0.0 2.0 0.00 2.28 0.00 90 1017.9
20260502091045 55 121 2.0 7.0 0.00 2.59 0.00 87 1016.8
20260502090116 56 118 0.0 2.0 0.00 2.98 0.00 88 1016.7
20260502071027 55 115 0.0 2.0 0.00 3.19 0.00 93 1016.7
20260502070016 55 47 1.0 2.0 0.00 3.20 0.00 93 1016.8
20260502065107 56 345 0.0 2.0 0.00 3.20 0.00 93 1016.8
20260502064057 56 222 1.0 3.0 0.00 3.21 0.00 92 1016.7
20260502063047 56 28 1.0 3.0 0.00 3.22 0.00 93 1016.8
20260502062037 56 62 1.0 3.0 0.00 3.22 0.00 93 1016.5
20260502061028 56 264 0.0 3.0 0.00 3.22 0.00 94 1016.4
20260502060017 56 16 1.0 4.0 0.00 3.22 0.00 94 1016.6
20260502055108 56 82 1.0 6.0 0.00 3.22 0.00 95 1016.6
20260502054058 56 96 1.0 4.0 0.00 3.22 0.00 95 1016.4
20260502053048 56 85 2.0 8.0 0.00 3.23 0.00 95 1016.5
20260502052038 56 39 2.0 6.0 0.00 3.23 0.00 95 1016.4
20260502051048 56 194 1.0 7.0 0.00 3.24 0.00 95 1016.2
20260502050018 56 18 2.0 6.0 0.00 3.24 0.00 96 1016.1
20260502045109 56 160 1.0 4.0 0.00 3.25 3.24 96 1016.0
20260502044059 56 25 1.0 8.0 0.00 3.37 3.24 96 1015.9
20260502043050 56 186 1.0 6.0 0.00 3.47 3.24 96 1016.0
20260502042039 56 252 1.0 3.0 0.00 3.47 3.24 96 1016.2
20260502041029 56 113 1.0 6.0 0.00 3.47 3.24 96 1016.1
20260502040019 56 66 2.0 11.0 0.00 3.47 3.24 97 1016.0
20260502035130 56 184 1.0 6.0 0.00 3.47 3.24 97 1016.2
20260502034100 56 138 0.0 3.0 0.00 3.47 3.24 97 1016.2
20260502033049 56 335 1.0 7.0 0.00 3.47 3.24 97 1015.9
20260502032100 56 206 1.0 3.0 0.01 3.47 3.24 97 1015.6
20260502031029 56 169 1.0 6.0 0.01 3.47 3.24 97 1015.6
20260502030019 56 271 2.0 6.0 0.02 3.47 3.24 97 1015.4
20260502025110 56 339 1.0 6.0 0.03 3.47 3.24 97 1015.0
20260502024101 56 234 1.0 6.0 0.05 3.47 3.24 97 1014.7
20260502023051 57 307 1.0 4.0 0.09 3.47 3.24 97 1014.4
20260502022040 57 298 2.0 6.0 0.09 3.46 3.23 97 1014.2
20260502021030 57 140 3.0 9.0 0.10 3.46 3.23 97 1013.9
20260502020040 58 88 1.0 3.0 0.12 3.45 3.22 97 1014.1
20260502015111 58 236 1.0 2.0 0.15 3.44 3.21 97 1014.1
20260502014101 59 309 1.0 4.0 0.14 3.42 3.19 97 1013.8
20260502013051 59 296 1.0 6.0 0.11 3.38 3.15 97 1013.8
20260502012041 59 295 1.0 3.0 0.11 3.37 3.14 97 1013.8
20260502011031 59 175 0.0 2.0 0.13 3.36 3.13 97 1013.2
20260502010021 59 328 0.0 3.0 0.12 3.33 3.10 97 1013.1
20260502005112 59 1 2.0 6.0 0.12 3.29 3.06 97 1013.3
20260502004102 59 82 1.0 3.0 0.14 3.28 3.05 97 1014.2
20260502003052 59 301 1.0 7.0 0.17 3.27 3.04 97 1012.7
20260502002102 59 151 1.0 7.0 0.17 3.26 3.03 97 1012.1
20260502001032 59 44 2.0 7.0 0.15 3.23 3.00 97 1012.5
20260502000042 60 157 1.0 3.0 0.16 3.21 2.98 97 1012.6
20260501235113 60 252 1.0 4.0 0.23 3.17 2.94 97 1012.7
20260501234103 60 352 1.0 4.0 0.25 3.14 2.91 97 1013.4
20260501233053 60 239 2.0 4.0 0.21 3.10 2.87 97 1012.4
20260501232103 60 59 2.0 4.0 0.20 3.09 2.86 97 1011.2
20260501231032 60 27 3.0 8.0 0.19 3.08 2.85 97 1010.5
20260501230023 61 162 2.0 13.0 0.16 3.05 2.82 97 1011.1
20260501225113 61 53 1.0 6.0 0.05 2.94 2.71 97 1011.8
20260501224104 61 355 2.0 11.0 0.00 2.89 2.66 97 1011.2
20260501223053 61 60 5.0 17.0 0.00 2.89 2.66 97 1010.4
20260501222104 61 45 2.0 8.0 0.00 2.89 2.66 97 1010.4
20260501221034 62 44 2.0 11.0 0.02 2.89 2.66 97 1010.2